Showing default

CHECKMATE 2, 56167

Orbit data source: Space-Track

CHECKMATE 2, 56167 is a payload satellite owned by SDA (US) in LEO that was launched on Sun, 02 Apr 2023 UTC via an FALCON 9 launch vehicle from the Air Force Western Test Range (AFWTR). Payloads include a variety of satellites, spacecraft, and rockets equipped with specific instruments for various scientific and technological missions. These include communications satellites like Starlink; space stations such as the ISS; scientific satellites like the Hubble; Earth observation satellites from companies like Planet Labs, Umbra, and HawkEye 360; GPS; miniature CubeSats for education and research; and military/defense satellites.

Loading next visibility...
CHECKMATE 2 details
Identifier
56167, 2023-050F
Orbit
LEO
Last TLE update13 hours ago
Origin
Flag of USSDA (US)
ManufacturerYork Space Sys
MissionOperational Defense Communications
Bus & MotorS-CLASS, Unknown motor
Mass~300 kg wet, ~300 kg dry
Launch date (UTC)
2023-04-02 (2 years ago)
Launch vehicle
FALCON 9
Launch site
Air Force Western Test Range (AFWTR)
Object type
Payload
Rocket body
Debris
Shape & HBRBox + 1 Pan, 2 m
Radar Cross Section0.945 m², Large (>1 m²)

Expand to show TLE details & history

TLE from 13 hours ago
0 CHECKMATE 2
1 56167U 23050F   25015.05569218  .00000151  00000-0  12403-3 0  9994
2 56167  81.0028 208.5876 0006214 271.4239  88.6205 13.85021225 90381
Epoch: 2025-01-15T01:20Z
Definitive object data (Epoch: 2025-01-15T01:20:11.804Z)
Latitude-0.00004°
Longitude73.78489°
Altitude948.881 km
Speed7.377 km/s
True Right ascension13h 54m 21s
True Declination0° 00' 00"
Sunlit
Object was in daylight at TLE epoch
Visualization TLE readout
Latitude-62.29811°
Longitude-89.28987°
Altitude965.918 km
Speed7.37 km/s
Apparent Right ascension03h 12m 18s
Apparent Declination-51° 45' 28"
Sunlit
Object is in daylight
Visualization observer readout
Local Sidereal Time15:19:27
Azimuth174.624° S
Elevation-78.094°
Doppler factor1
Orbital elements
Apogee altitude947.9 km
Perigee altitude938.801 km
Semi-major axis7,321.487 km
Eccentricity0.0006214
Inclination81.0028°
RAAN208.5876°
Arg. of periapsis271.4239°
True anomaly88.69169°
Mean anomaly88.6205°
Eccentric anomaly88.65609°
Mean motion3.46453 °/min
BSTAR0.00012403
Orbital period103.91 mins
Loading maneuver chart data...
Loading historical data...
Loading historical data...
Loading historical data...
Loading historical data...
Loading historical data...
Loading historical data...
Loading historical data...

CHECKMATE 2 Visibility forecast

Observer location: undefined°, undefined

Span
Click to sort rows by Start time (UTC) header in descending order
Start Az.
Max El. time (UTC)
Max El. Az.
Max El.
End time (UTC)
End Az.
4 mins2025-01-15 15:23:43.914Z274.942° WNW2025-01-15 15:25:43.914Z295.386° NW13.162°2025-01-15 15:27:43.914Z316.125° NNW
11 mins2025-01-16 00:27:43.914Z352.731° N2025-01-16 00:32:43.914Z67.792° E44.75°2025-01-16 00:38:43.914Z168.809° S
6 mins2025-01-16 12:09:43.914Z114.228° SE2025-01-16 12:12:43.914Z79.063° E17.615°2025-01-16 12:15:43.914Z47.571° ENE
10 mins2025-01-16 13:51:43.914Z205.086° SW2025-01-16 13:56:43.914Z286.53° WNW40.938°2025-01-16 14:01:43.914Z0.095° NNE
|